Regional Weather Roundup
Issued by NWS

Home | Current Version | Previous Version | Graphics & Text | Print | Product List | Glossary On
Versions: 1 2 3 4 5 6 7 8 9 10 11 12 13 14 15 16 17 18 19 20 21 22 23 24 25 26 27 28 29 30 31 32 33 34 35 36 37 38 39 40 41 42 43 44 45 46 47 48 49 50
000
ASUS45 KTFX 290010
RWRMT
MONTANA REGIONAL WEATHER ROUNDUP
NATIONAL WEATHER SERVICE GREAT FALLS MT
600 PM MDT SAT MAY 28 2016

NOTE: "FAIR" INDICATES FEW OR NO CLOUDS BELOW 12000 FEET WITH NO
SIGNIFICANT WEATHER AND/OR OBSTRUCTIONS TO VISIBILITY.

MTZ001>007-043-290100-
WEST OF THE DIVIDE

CITY           SKY/WX    TMP DP  RH WIND       PRES   REMARKS
KALISPELL      PTSUNNY   62  32  32 SW10      30.02S
MISSOULA       MOSUNNY   62  32  32 NW9       30.05S
BUTTE          MOSUNNY   57  29  34 VRB5      30.05S
MULLAN PASS    PTSUNNY   44  29  55 VRB6G16   30.09S
ANACONDA         N/A     57  30  35 N7        30.05R
DEER LODGE       N/A     57  30  35 NW8       30.06S
EUREKA           N/A     61  28  29 SW6       30.00F
HAMILTON         N/A     64  28  25 NE9       30.02S
LIBBY            N/A     63  30  29 S5        30.03F
$$

MTZ008-052>055-290100-
SOUTHWEST MONTANA

CITY           SKY/WX    TMP DP  RH WIND       PRES   REMARKS
BOZEMAN        CLOUDY    63  40  42 N5        30.01F
DILLON         MOSUNNY   62  28  27 W7        30.01S
W YELLOWSTONE  CLOUDY    52  34  50 SW18G25   30.11R
ENNIS          PTSUNNY   61  36  39 S6        30.08S
$$

MTZ009-010-012-014-046-048-049-054-290100-
EAST SLOPES AND CENTRAL MONTANA

CITY           SKY/WX    TMP DP  RH WIND       PRES   REMARKS
CUT BANK       PTSUNNY   59  29  31 SW17G24   29.96S
GREAT FALLS    CLOUDY    62  27  26 W15       29.98S
MALMSTROM AFB  PTSUNNY   60  28  29 W15G21    29.99S
HELENA         CLOUDY    62  30  29 NW16G23   30.01R
CHOTEAU          N/A     59  30  33 W13       30.00R
$$

MTZ011-013-016-021-045-047-050-051-290100-
NORTH CENTRAL MONTANA

CITY           SKY/WX    TMP DP  RH WIND       PRES   REMARKS
HAVRE          PTSUNNY   62  34  35 W16G28    29.93R
LEWISTOWN      SUNNY     61  31  32 NW10      29.99S
N BAR RANCH      N/A     57  32  38 NW12      30.02S
CHINOOK          N/A     64  30  27 W12       29.92S
$$

MTZ017>020-022>027-061-062-290100-
NORTHEAST MONTANA

CITY           SKY/WX    TMP DP  RH WIND       PRES   REMARKS
GLASGOW        MOSUNNY   65  41  41 NW14      29.92R
JORDAN           N/A     66  39  37 W10       29.95R
SIDNEY         MOSUNNY   70  46  43 NW14      29.91R
WOLF POINT     MOSUNNY   69  41  36 W10G21    29.92R
PLENTYWOOD       N/A     63  50  63 NW9       29.91S
POPLAR           N/A     66  45  45 NW13      29.92R
$$

MTZ028>42-056>058-290100-
SOUTHCENTRAL AND SOUTHEAST MONTANA

CITY           SKY/WX    TMP DP  RH WIND       PRES   REMARKS
BAKER          MOSUNNY   66  42  41 NW18G24   29.94S
BILLINGS       MOSUNNY   66  38  35 NW13G21   29.99S
LIVINGSTON     CLOUDY    61  40  45 SW12      30.01S
MILES CITY     SUNNY     72  36  26 W14       29.93S
FORSYTH          N/A     70  37  30 W9        29.94S
$$

REGIONAL REPORTS...DAKOTAS

CITY           SKY/WX    TMP DP  RH WIND       PRES   REMARKS
WILLISTON      LGT RAIN  61  56  83 W3        29.92R
MINOT          MOSUNNY   69  52  54 NW3       29.88R
DICKINSON      LGT RAIN  65  50  58 W5        29.89S
BEACH            N/A     66  41  39 NW22G30   29.96R
CROSBY         PTSUNNY   59  59 100 E8        29.92S FOG
WATFORD CITY     N/A     61  55  82 CALM      29.92R
BISMARCK       LGT RAIN  60  57  89 NW15G23   29.91R
GRAND FORKS    LGT RAIN  64  59  83 E7        29.83R
FARGO          CLOUDY    66  58  75 NE12      29.81S
BUFFALO SD       N/A     71  43  36 NW20G30   29.86S
RAPID CITY     CLOUDY    65  50  58 S7        29.96R
$$

REGIONAL REPORTS...WYOMING/IDAHO/WASHINGTON

CITY           SKY/WX    TMP DP  RH WIND       PRES   REMARKS
GILLETTE       SUNNY     67  43  41 N8        29.98S
SHERIDAN       SUNNY     66  43  43 W3        29.98S
BUFFALO WY     SUNNY     61  44  53 N8        30.02S
CODY           SUNNY     63  43  48 N9        29.99R
YELLOWSTONE LA   N/A     49  26  41 VRB6      30.17R
IDAHO FALLS    SUNNY     65  29  25 SW13G24   30.06S
SALMON         MOSUNNY   64  34  32 NW6       29.97F
BOISE          SUNNY     69  25  19 NW9       30.01F
SPOKANE        PTSUNNY   62  34  35 S10G16    30.02F
$$

REGIONAL REPORTS...ALBERTA

CITY           SKY/WX    TMP DP  RH WIND       PRES   REMARKS
EDMONTON       MOSUNNY   61  37  41 E3        29.83F
CALGARY        MOSUNNY   59  28  31 E5        29.85F
LETHBRIDGE     PTSUNNY   63  30  29 W25G33    29.89S
MEDICINE HAT   MOSUNNY   64  39  39 CALM      29.86F
WATERTON GATE    N/A     54  28  37 SW17G25     N/A
CARDSTON         N/A     59  30  33 W14G23      N/A
MILK RIVER       N/A     61  30  31 W18G25      N/A
$$

REGIONAL REPORTS...SASKATCHEWAN

CITY           SKY/WX    TMP DP  RH WIND       PRES   REMARKS
SWIFT CURRENT  LGT RAIN  54  46  76 W16G22    29.88R
REGINA         LGT RAIN  57  55  94 S6        29.89F
SASKATOON      LGT RAIN  55  54  94 SW7       29.87S
CYPRESS HILLS    N/A     54  37  54 NW5         N/A
VAL MARIE        N/A     64  32  29 W14G20      N/A
ROCKGLEN         N/A     55  50  82 CALM        N/A
$$



USA.gov is the U.S. government's official web portal to all federal, state and local government web resources and services.